Simultaneous Nadir Overpasses (SNOs) Predictions

Prediction of SNOs between METOP-B and TERRA Satellite Orbit:

Table of predicted SNOs for the next 14.0 days since TLE Epoch: 3/29/2019
Index Date (METOP-B) Time (METOP-B) Lat,Lon (METOP-B) SZA (METOP-B ) Date (TERRA) Time (TERRA) Lat,Lon (TERRA) SZA (TERRA ) Distance(km) Time Diff (sec)
1 03/29/2019 21:36:02 -81.30, 83.01 99.60 03/29/2019 21:37:11 -81.30, 82.93 99.58 1.36 69
2 03/29/2019 22:26:42 81.30,-109.20 80.45 03/29/2019 22:26:37 81.30,-109.34 80.43 2.45 5
3 04/01/2019 17:10:25 -81.29, 149.33 100.67 04/01/2019 17:11:25 -81.30, 149.49 100.62 3.01 60
4 04/01/2019 18:01:05 81.30, -42.90 79.37 04/01/2019 18:00:51 81.31, -42.80 79.38 1.86 14
5 04/04/2019 12:44:49 -81.29,-144.36 101.73 04/04/2019 12:45:41 -81.29,-144.36 101.71 0.46 52
6 04/04/2019 13:35:29 81.30, 23.39 78.31 04/04/2019 13:35:07 81.29, 23.32 78.29 1.44 22
7 04/07/2019 08:19:13 -81.29, -78.06 102.78 04/07/2019 08:19:56 -81.29, -77.88 102.74 3.02 43
8 04/07/2019 09:09:53 81.30, 89.66 77.26 04/07/2019 09:09:22 81.29, 89.78 77.25 2.03 31
9 04/10/2019 03:53:35 -81.30, -11.38 103.77 04/10/2019 03:54:10 -81.29, -11.44 103.77 1.15 35




NCC Satellite Simultaneous Nadir Overpasses (SNOs) Prediction Service
